Home > Weather > Delmenhorst > Past weeks

Flag for Germany Past Weather in Delmenhorst, Lower Saxony, Germany — Yesterday and Last 2 Weeks

Now
57 °F

Partly sunny.


Feels Like: 56 °F
Forecast: 56 / 65 °F
Wind: 6 mph from Southwest

Location: Bremen Airport

Current Time: Jun 29, 2016 at 7:46:56 AM

Latest Report: Jun 29, 2016 at 6:50 AM


Visibility: N/A

Pressure: 29.77 "Hg

Humidity: 100%

Dew Point: 57 °F

Location of DelmenhorstLocation

Past Weather in Delmenhorst — Graph

°F

Delmenhorst Temperature Yesterday

Maximum temperature yesterday: 70 °F (at 2:50 PM)
Minimum temperature yesterday: 50 °F (at 4:20 AM)
Average temperature yesterday: 61 °F

High & Low Weather Summary for the Past Weeks

 TemperatureHumidityPressure
High88 °F (Jun 23, 2:50 PM)100% (Jun 14, 6:20 AM)30.21 "Hg (Jun 14, 6:20 AM)
Low46 °F (Jun 20, 1:50 AM)43% (Jun 28, 3:20 PM)29.45 "Hg (Jun 14, 12:50 PM)
Average63 °F81%29.91 "Hg
* Reported Jun 14 6:20 AM — Jun 29 6:20 AM, Delmenhorst, Weather by CustomWeather, © 2016

Note: Actual official high and low records may vary slightly from our data, if they occured in-between our weather recording intervals... More about our weather records

Advertising

Delmenhorst Weather History for the Previous 24 Hours

Scroll right to see more
 ConditionsComfort  
Time TempWeatherWind HumidityBarometerVisibility
6:20 AM
Wed, Jun 29
57 °FPartly sunny.2 mph100%29.77 "HgN/A
5:50 AM57 °FRain. Overcast.3 mph100%29.77 "Hg4 mi
5:20 AM57 °FLight rain. Overcast.3 mph94%29.80 "HgN/A
4:50 AM57 °FLight rain. Overcast.8 mph94%29.80 "HgN/A
4:20 AM57 °FLight rain. Passing clouds.10 mph94%29.80 "HgN/A
3:50 AM57 °FLight rain. Passing clouds.7 mph82%29.80 "HgN/A
3:20 AM59 °FPassing clouds.10 mph77%29.80 "HgN/A
2:50 AM59 °FPassing clouds.9 mph77%29.80 "HgN/A
2:20 AM59 °FPartly cloudy.10 mph77%29.80 "HgN/A
1:50 AM61 °FPartly cloudy.12 mph68%29.83 "HgN/A
1:20 AM61 °FPartly cloudy.10 mph68%29.83 "HgN/A
12:50 AM61 °FClear.10 mph68%29.86 "Hg10 mi
12:20 AM61 °FClear.9 mph68%29.86 "Hg10 mi
11:50 PM
Tue, Jun 28
61 °FClear.10 mph68%29.89 "Hg10 mi
11:20 PM61 °FClear.9 mph68%29.89 "Hg10 mi
10:50 PM63 °FSunny.10 mph64%29.89 "Hg10 mi
10:20 PM63 °FSunny.7 mph64%29.92 "Hg10 mi
9:50 PM63 °FSunny.8 mph64%29.92 "Hg10 mi
9:20 PM64 °FSunny.8 mph60%29.92 "Hg10 mi
8:50 PM64 °FSunny.8 mph60%29.92 "Hg10 mi
8:20 PM66 °FPassing clouds.5 mph52%29.95 "HgN/A
7:50 PM66 °FSunny.6 mph56%29.95 "Hg10 mi
7:20 PM68 °FPassing clouds.8 mph49%29.95 "HgN/A
6:50 PM66 °FSunny.7 mph56%29.95 "Hg10 mi
6:20 PM66 °FPassing clouds.7 mph52%29.98 "HgN/A
5:50 PM70 °FSunny.2 mph43%29.98 "Hg10 mi
5:20 PM68 °FSunny.1 mph43%30.01 "Hg10 mi
4:50 PM68 °FPassing clouds.3 mph43%30.01 "HgN/A
4:20 PM68 °FPassing clouds.6 mph49%30.01 "HgN/A
3:50 PM68 °FPassing clouds.3 mph43%30.04 "HgN/A
3:20 PM68 °FPassing clouds.8 mph43%30.04 "HgN/A
2:50 PM70 °FPassing clouds.6 mph46%30.04 "HgN/A
2:20 PM66 °FPassing clouds.6 mph52%30.04 "HgN/A
1:50 PM68 °FPassing clouds.7 mph46%30.04 "HgN/A
1:20 PM66 °FPassing clouds.6 mph49%30.07 "HgN/A
12:50 PM66 °FPassing clouds.6 mph46%30.07 "HgN/A
12:20 PM64 °FScattered clouds.6 mph52%30.07 "HgN/A
11:50 AM64 °FScattered clouds.7 mph52%30.07 "HgN/A
11:20 AM64 °FScattered clouds.6 mph52%30.07 "HgN/A
10:50 AM63 °FScattered clouds.7 mph59%30.09 "HgN/A
10:20 AM63 °FScattered clouds.9 mph59%30.09 "HgN/A
9:50 AM61 °FScattered clouds.8 mph68%30.07 "HgN/A
9:20 AM61 °FPassing clouds.7 mph68%30.07 "HgN/A
8:50 AM59 °FPassing clouds.6 mph77%30.07 "HgN/A
8:20 AM57 °FPassing clouds.6 mph88%30.07 "HgN/A
7:50 AM55 °FSunny.5 mph88%30.07 "Hg10 mi
7:20 AM54 °FSunny.3 mph94%30.07 "Hg10 mi
Weather by CustomWeather, © 2016

See weather overviewHow to use our weather pages